Temperature
18 18 18 18 18 18 18 18 18 18 18 18 18 18 18 18 18 18 18 18 18 18 18 18 18 18 18 18 18 18 18 18 18 18 18 18 18 18 18 18 17 17 17
18 18 18 18 18 18 18 18 18 18 18 18 18 18 18 18 17 18 18 18 18 18 17 18 18 18 18 18 18 18 18 18 18 17 17 17 18 18 18 18 17 17 17
18 18 18 18 18 18 18 18 18 18 18 18 18 18 17 17 17 17 17 17 17 17 17 17 17 17 18 18 18 18 18 18 17 17 17 17 17 17 18 18 17 17 17
18 18 18 18 18 17 17 17 17 17 18 17 17 17 17 17 17 17 17 17 17 17 17 17 17 17 17 17 17 17 17 17 17 17 17 17 17 17 17 17 17 17 17
18 18 18 18 17 17 17 17 17 17 17 17 17 17 17 17 17 17 17 17 17 17 17 17 17 17 17 17 17 17 17 17 17 17 17 17 17 17 17 17 17 17 17
18 18 18 18 18 17 17 17 17 17 17 17 17 17 17 17 17 17 17 17 17 17 17 17 17 17 17 17 17 17 17 17 17 17 17 17 17 17 17 17 17 17 17
18 18 18 18 18 17 17 17 17 17 17 17 17 17 17 17 17 17 17 17 17 17 17 17 17 17 17 17 17 17 17 16 16 16 16 17 17 17 17 17 17 17 17
18 18 18 18 18 17 17 17 17 17 17 17 17 17 17 17 17 17 17 17 17 17 17 17 17 17 17 17 17 17 16 16 16 16 16 17 17 17 17 17 17 17 16
19 18 18 18 18 18 17 17 17 17 17 17 17 17 17 17 17 17 17 17 17 17 17 17 17 17 17 16 17 16 16 16 16 16 16 16 16 16 16 16 16 16 16
19 18 18 18 18 17 17 17 17 17 17 17 17 16 16 16 16 16 16 16 17 17 17 16 16 16 16 16 16 16 16 16 16 16 16 16 16 16 16 16 16 16 16
19 19 18 18 18 17 17 17 17 17 17 17 16 16 16 16 16 16 16 16 16 16 16 16 16 16 16 16 16 16 16 16 16 16 16 16 16 16 16 16 16 16 16
19 19 19 18 18 17 17 17 17 17 17 16 16 16 16 16 16 16 16 16 16 16 16 16 16 16 16 16 16 16 16 16 16 16 16 16 16 16 16 16 16 16 15
19 19 19 18 18 18 17 17 17 17 17 16 16 16 16 16 16 16 16 16 16 16 16 16 16 16 16 16 16 15 16 16 15 15 15 16 16 16 16 15 15 15 15
19 19 19 18 18 18 17 17 17 17 17 17 16 16 16 16 16 16 16 16 16 16 16 16 16 16 16 16 15 15 15 15 15 15 15 15 15 15 15 15 15 15 15
19 19 19 18 18 18 17 17 17 17 17 17 16 16 16 16 16 16 16 16 16 16 16 16 16 15 15 15 15 15 15 15 15 15 15 15 15 15 15 15 15 15 15
19 19 19 18 18 18 18 17 17 17 17 17 17 16 16 16 16 16 16 16 16 16 16 16 15 15 15 15 15 15 15 15 15 15 15 15 15 15 15 15 15 15 15
20 19 19 18 18 18 18 17 17 17 17 17 17 17 16 16 16 16 16 16 16 16 15 15 15 15 15 15 15 15 15 15 15 14 14 14 14 14 15 15 14 14 14
20 19 19 18 18 18 18 17 17 17 17 17 17 17 16 16 16 16 16 16 16 15 15 15 15 15 15 15 14 14 14 14 14 14 14 14 14 14 14 14 14 14 14
19 19 19 18 18 18 17 17 17 17 17 16 16 16 16 16 16 16 16 16 15 15 15 15 15 15 15 15 14 14 14 14 14 14 14 14 14 14 14 14 14 14 14
19 19 19 18 18 17 17 17 17 17 17 16 16 16 16 16 16 16 16 16 15 15 15 15 15 15 15 15 14 14 14 14 14 14 14 14 14 13 13 13 13 13 13
19 19 18 18 18 17 17 17 17 17 16 16 16 16 16 16 16 16 16 15 15 15 15 15 15 15 14 15 15 14 14 14 14 14 13 13 13 13 13 13 13 13 13
19 18 18 18 17 17 17 17 17 16 16 16 16 16 16 16 16 16 16 15 15 15 15 15 15 15 14 14 14 14 14 14 14 13 13 13 13 13 13 13 13 13 13
18 18 18 18 17 17 17 17 16 16 16 16 16 16 16 16 16 16 15 15 15 15 15 15 15 15 14 14 15 15 14 14 13 13 13 13 13 13 13 12 12 12 13
18 18 18 17 17 17 17 16 16 16 16 16 16 16 16 16 16 16 15 15 15 15 15 15 15 15 15 15 15 15 15 15 14 13 13 13 13 13 12 12 12 12 12
18 18 18 17 17 17 17 16 16 16 16 16 16 16 16 16 16 16 16 15 15 15 15 15 15 15 15 15 15 15 15 15 14 14 13 13 13 12 12 12 12 12 12
18 18 17 17 17 17 16 16 16 16 16 16 16 16 16 16 16 16 15 15 15 15 15 15 15 15 15 15 15 15 15 15 14 14 13 13 13 12 12 12 12 12 12
Wind_Speed
8 11 10 10 9 9 9 10 10 9 8 9 9 9 9 9 9 9 9 9 8 8 8 8 8 8 8 9 9 9 9 9 8 9 9 9 9 9 9 9 8 9 9
11 13 12 10 9 9 9 9 9 9 9 9 9 9 9 9 9 8 8 8 8 7 7 8 8 8 8 8 8 8 8 8 7 6 7 9 9 9 9 9 10 8 9
11 13 12 10 9 9 9 9 9 9 9 9 8 8 9 9 8 8 8 8 7 7 7 7 8 8 8 8 8 7 7 6 5 4 5 7 9 10 10 10 10 9 9
11 13 12 10 9 9 9 9 9 9 9 9 8 8 8 8 8 8 8 7 7 7 7 7 8 8 8 8 7 7 6 5 5 6 7 8 9 10 10 10 10 9 8
11 13 12 10 9 9 8 8 9 8 9 9 8 9 8 8 7 7 7 8 8 8 8 8 8 8 8 7 7 6 5 5 6 7 9 10 10 10 10 10 9 8 8
10 13 12 10 9 8 8 8 8 8 8 8 8 8 8 8 8 7 8 8 8 8 8 8 8 9 9 8 7 6 6 6 7 8 9 11 10 10 10 10 9 9 9
9 11 11 10 9 8 8 8 8 8 7 7 8 7 7 8 8 7 8 8 8 8 9 9 9 10 10 9 8 7 6 6 6 8 10 11 10 11 11 10 10 9 9
8 9 11 11 10 9 9 8 7 7 7 7 7 7 7 7 7 7 7 8 8 8 9 9 9 10 10 9 8 7 7 7 8 10 11 11 11 11 11 11 10 10 10
6 7 9 11 10 10 10 9 8 7 7 6 6 5 6 6 6 6 7 8 9 9 9 9 10 10 9 8 7 7 8 9 9 9 11 11 12 12 11 11 11 11 11
5 5 5 7 10 10 10 10 9 8 7 6 5 5 5 6 6 7 8 8 9 9 9 9 9 9 9 7 6 5 7 8 10 11 10 11 12 12 12 11 11 11 11
4 4 4 5 7 8 9 10 10 9 7 7 6 5 4 5 7 8 10 10 9 9 9 9 9 8 7 6 5 5 6 7 11 11 11 12 13 13 12 12 12 11 11
5 4 4 5 5 5 5 8 7 7 7 5 6 6 5 5 7 9 10 10 9 9 8 7 7 6 5 4 5 6 7 9 10 10 12 13 13 13 12 12 12 12 11
5 4 4 4 5 5 4 5 4 4 4 3 4 5 6 6 6 8 7 7 7 6 4 5 4 4 4 6 7 9 10 10 11 12 12 14 13 13 13 12 12 12 12
4 4 3 3 3 4 4 3 3 3 2 2 3 5 5 3 3 4 4 5 5 4 3 3 3 5 7 9 9 10 10 10 11 11 13 14 14 13 13 13 13 12 13
4 4 4 3 4 3 3 3 3 3 2 3 3 4 5 3 3 3 3 5 5 5 4 3 5 7 7 8 10 10 9 11 11 12 12 16 16 14 14 14 14 13 13
4 4 4 3 4 3 3 2 3 3 3 4 3 3 5 4 3 3 4 3 4 5 5 5 6 5 5 6 7 8 9 9 10 11 12 14 17 16 16 15 15 15 14
4 5 4 3 3 3 3 2 3 3 4 3 3 4 5 5 4 4 3 3 4 7 7 6 6 5 5 6 6 7 7 8 9 10 10 11 13 16 17 17 17 17 16
4 5 4 4 4 4 3 2 2 3 4 3 4 4 4 5 6 5 4 3 5 7 5 4 4 4 5 5 5 5 5 6 8 9 9 10 10 12 15 17 17 17 17
3 4 5 4 4 4 4 3 3 3 4 3 4 3 3 5 7 6 4 3 6 5 4 4 4 4 5 5 5 4 4 5 5 8 8 9 10 11 12 15 16 17 17
4 3 4 5 4 4 3 3 2 2 2 3 3 3 4 5 7 6 4 4 6 4 4 4 4 4 4 3 5 5 5 4 5 5 6 8 9 11 11 11 12 14 17
4 2 3 4 4 4 3 3 2 2 2 2 2 4 4 4 6 5 4 4 4 4 4 4 4 5 4 3 4 4 4 4 4 4 4 5 7 9 10 10 10 11 12
3 2 3 4 3 4 3 2 2 3 2 3 2 3 3 4 5 5 5 4 4 4 4 5 4 3 2 2 2 3 2 3 3 3 3 3 4 7 7 10 11 12 12
3 1 2 3 3 3 3 2 1 2 2 2 2 2 1 4 5 4 4 4 4 4 4 4 4 3 2 0 1 2 2 2 1 2 2 3 4 3 5 8 10 11 12
3 1 2 3 3 3 3 2 2 2 2 2 3 3 2 3 4 4 4 4 4 4 4 4 4 2 2 1 0 1 2 3 3 1 2 2 4 4 4 6 9 11 13
3 2 2 2 3 3 3 3 2 2 2 2 3 4 4 2 3 4 4 3 3 3 4 3 4 3 2 2 1 1 2 1 2 3 2 1 3 3 3 5 7 9 11
4 2 2 3 2 2 2 3 3 3 2 3 3 3 3 2 2 3 3 3 4 3 4 3 3 3 2 2 2 2 2 2 2 3 3 3 3 2 3 4 6 8 10
Wind_Direction
98 97 88 82 80 78 77 74 77 77 75 74 73 73 74 77 76 75 76 76 74 73 73 73 76 78 75 73 70 69 68 68 72 80 82 80 76 72 65 56 59 73 71
102 101 90 84 82 81 80 77 78 76 77 78 76 74 74 78 79 79 80 81 77 76 76 76 77 79 77 74 72 71 69 68 68 74 84 86 79 74 68 61 60 65 64
101 105 94 85 84 83 82 80 80 78 79 80 78 77 78 79 79 79 79 82 77 78 80 80 79 80 78 75 73 70 65 58 51 53 78 87 80 72 69 68 65 62 59
97 98 96 92 87 84 83 84 81 79 81 81 83 81 81 81 80 78 79 80 79 80 81 83 84 85 83 79 74 67 56 39 33 46 66 74 75 72 70 68 63 62 63
96 100 102 100 93 88 86 88 86 85 83 83 82 81 80 81 82 81 80 82 83 83 85 87 87 85 84 80 73 60 42 27 38 53 69 78 78 74 72 67 65 63 65
103 105 111 110 103 99 96 93 91 88 84 83 82 81 80 81 83 85 84 84 86 86 86 87 89 85 81 75 65 51 34 30 53 66 67 73 79 76 73 68 66 64 63
102 112 119 123 119 115 109 102 94 91 88 86 85 84 84 84 85 86 85 87 86 88 89 87 89 89 84 73 60 50 44 32 69 81 75 74 78 79 74 68 65 62 61
105 115 126 136 133 129 122 113 104 100 98 93 91 90 91 91 90 89 89 91 92 92 93 91 93 93 90 81 70 57 44 39 68 76 75 73 79 77 72 68 64 63 63
107 121 134 141 140 138 134 129 122 115 112 110 106 105 109 110 106 104 98 95 96 97 99 98 98 97 93 85 75 62 49 43 52 64 73 73 76 74 72 68 65 62 60
106 112 123 139 143 142 141 140 137 133 133 135 134 132 131 131 128 119 109 105 105 105 106 105 105 105 101 93 82 66 54 49 62 65 66 74 77 75 72 70 68 63 61
107 106 116 120 124 132 141 145 150 152 154 155 161 164 157 142 133 123 116 116 114 114 116 116 119 119 115 106 87 70 65 71 71 68 64 74 76 74 71 70 68 65 63
123 114 109 114 118 121 122 135 149 150 160 168 157 157 147 120 114 116 122 121 120 122 128 134 137 138 130 119 98 83 70 67 70 71 68 74 74 74 71 70 69 66 64
102 98 100 113 121 115 110 114 112 115 134 141 129 135 121 114 118 123 133 134 129 132 134 133 143 123 107 90 86 82 75 67 66 67 67 72 74 75 75 74 71 66 64
101 102 92 90 104 112 105 108 116 112 108 123 126 115 111 111 108 115 125 127 128 128 107 105 101 83 78 81 84 83 80 80 76 72 66 71 74 75 75 73 71 69 68
118 116 107 103 93 104 112 132 129 116 117 116 103 108 114 114 119 120 116 116 123 122 103 76 77 73 67 66 72 77 78 81 85 81 74 72 73 74 74 72 68 67 70
138 132 121 108 98 101 108 139 127 116 119 113 105 101 114 116 118 117 103 99 101 106 103 91 85 81 77 72 69 69 76 79 85 93 91 78 72 71 70 69 65 66 70
125 118 115 123 110 104 102 103 111 113 111 108 101 94 98 107 102 96 102 102 99 102 95 89 86 84 87 82 72 65 65 72 80 84 93 93 82 73 72 70 66 66 68
122 124 122 114 109 110 113 101 96 106 101 98 92 95 102 105 97 92 94 96 97 97 87 84 88 81 78 79 76 70 65 65 72 80 87 91 92 86 80 76 70 67 67
109 113 118 116 127 114 110 102 77 90 102 99 91 83 82 102 107 106 106 104 100 95 90 96 84 89 88 83 85 78 71 66 62 70 76 83 87 95 92 83 75 68 66
85 95 118 118 120 114 109 107 92 76 94 93 89 92 86 82 97 102 108 103 100 94 85 87 90 91 97 99 92 81 76 78 67 61 66 72 77 86 90 91 84 73 67
93 98 111 107 110 115 119 123 128 126 110 100 77 83 97 100 107 106 106 106 104 111 120 114 107 107 105 108 95 78 62 68 79 76 69 70 71 79 81 85 88 83 73
95 110 126 119 117 120 130 146 150 143 136 123 106 91 103 109 112 119 119 117 116 117 115 112 119 118 134 137 121 119 95 48 35 70 77 79 72 74 76 79 83 83 80
101 97 101 109 108 114 127 116 127 111 106 107 125 128 128 109 114 115 126 132 134 131 132 135 142 143 160 198 87 116 137 139 94 38 74 85 84 72 70 76 79 83 82
120 118 101 101 108 112 122 125 130 128 143 161 157 151 146 119 116 118 124 126 134 137 146 161 157 153 143 161 46 46 98 135 137 117 31 65 92 87 79 78 78 80 84
113 105 105 97 99 112 121 135 133 136 163 166 157 150 147 144 132 134 140 140 135 142 157 159 147 156 161 164 151 110 71 95 124 133 136 104 67 70 84 82 83 85 84
114 102 97 104 103 114 135 153 156 172 182 156 152 153 154 155 157 152 151 159 159 160 164 162 160 164 165 159 158 153 157 154 149 141 140 138 113 90 84 89 92 94 91
Height
1520 1519 1519 1518 1518 1518 1519 1519 1519 1520 1520 1520 1521 1522 1522 1523 1523 1523 1524 1524 1525 1526 1526 1526 1526 1527 1527 1528 1528 1528 1528 1528 1529 1529 1529 1529 1530 1530 1530 1530 1531 1531 1531
1521 1519 1519 1519 1519 1519 1520 1520 1520 1521 1521 1522 1522 1523 1523 1524 1524 1524 1525 1525 1526 1526 1527 1527 1528 1528 1528 1529 1529 1529 1530 1530 1530 1530 1530 1531 1531 1531 1531 1531 1531 1532 1532
1521 1520 1520 1520 1520 1520 1521 1521 1521 1522 1522 1523 1523 1524 1524 1525 1525 1526 1526 1527 1527 1527 1528 1528 1529 1529 1529 1530 1530 1531 1531 1531 1532 1532 1532 1532 1532 1532 1532 1532 1532 1532 1533
1522 1521 1521 1521 1521 1521 1522 1522 1522 1523 1523 1524 1524 1525 1525 1526 1526 1527 1527 1527 1528 1528 1529 1529 1530 1530 1530 1531 1531 1532 1532 1532 1533 1533 1533 1533 1533 1533 1533 1533 1533 1533 1533
1523 1522 1522 1522 1522 1522 1523 1523 1524 1524 1524 1525 1525 1526 1526 1526 1527 1527 1528 1528 1529 1529 1530 1530 1530 1531 1531 1532 1532 1533 1533 1533 1534 1534 1534 1534 1534 1534 1534 1534 1534 1534 1534
1524 1523 1523 1523 1523 1523 1523 1524 1525 1525 1525 1526 1526 1527 1527 1527 1528 1528 1529 1529 1530 1530 1530 1531 1531 1532 1532 1533 1533 1534 1534 1534 1535 1535 1535 1535 1535 1535 1535 1535 1535 1535 1535
1525 1524 1524 1524 1524 1524 1524 1525 1525 1526 1526 1527 1527 1528 1528 1528 1529 1529 1530 1530 1530 1531 1531 1532 1532 1533 1533 1534 1534 1535 1535 1536 1536 1536 1536 1536 1536 1536 1536 1536 1535 1535 1535
1526 1525 1525 1525 1525 1525 1525 1526 1526 1527 1527 1528 1528 1529 1529 1529 1530 1530 1531 1531 1532 1532 1532 1533 1534 1534 1535 1535 1535 1536 1537 1537 1538 1538 1537 1537 1537 1537 1537 1536 1536 1536 1536
1527 1526 1526 1526 1526 1526 1526 1527 1527 1528 1528 1529 1529 1530 1530 1531 1531 1531 1532 1532 1533 1533 1534 1534 1535 1536 1536 1537 1537 1537 1538 1538 1539 1539 1538 1538 1538 1538 1537 1537 1537 1537 1537
1528 1527 1527 1527 1527 1527 1527 1528 1528 1529 1529 1530 1531 1531 1532 1532 1532 1533 1533 1533 1534 1535 1535 1536 1536 1537 1538 1538 1539 1539 1539 1540 1540 1539 1539 1539 1539 1539 1538 1538 1538 1538 1538
1529 1529 1529 1528 1529 1529 1529 1529 1529 1530 1531 1531 1532 1532 1533 1533 1534 1534 1534 1535 1535 1536 1537 1538 1538 1539 1540 1540 1540 1541 1541 1541 1541 1541 1541 1540 1540 1540 1540 1539 1539 1539 1539
1529 1530 1530 1530 1530 1530 1530 1530 1530 1531 1532 1532 1533 1534 1534 1535 1535 1536 1536 1537 1537 1538 1539 1539 1540 1541 1541 1541 1542 1542 1542 1542 1542 1542 1542 1542 1541 1541 1541 1541 1540 1540 1540
1530 1530 1530 1530 1530 1531 1531 1531 1532 1532 1533 1533 1534 1535 1536 1536 1536 1537 1537 1538 1539 1539 1540 1541 1542 1542 1543 1543 1544 1544 1544 1543 1543 1543 1543 1543 1543 1542 1542 1542 1542 1541 1541
1530 1530 1530 1531 1531 1531 1531 1532 1532 1533 1533 1534 1535 1536 1537 1537 1538 1538 1539 1539 1540 1541 1542 1542 1543 1544 1545 1545 1545 1545 1545 1545 1545 1545 1545 1545 1544 1544 1544 1543 1543 1543 1543
1530 1531 1531 1531 1531 1531 1531 1532 1533 1533 1534 1535 1536 1536 1537 1538 1538 1539 1540 1541 1541 1542 1543 1544 1545 1545 1546 1546 1546 1546 1546 1546 1546 1546 1546 1546 1546 1546 1546 1545 1545 1545 1544
1530 1530 1531 1531 1531 1531 1532 1532 1533 1533 1534 1535 1536 1537 1538 1538 1539 1540 1541 1542 1543 1543 1544 1545 1546 1546 1547 1547 1548 1548 1548 1548 1548 1548 1548 1548 1547 1547 1547 1547 1547 1546 1546
1529 1530 1530 1531 1531 1531 1532 1532 1533 1534 1535 1536 1537 1537 1538 1539 1540 1540 1541 1542 1543 1544 1545 1546 1547 1548 1548 1549 1549 1549 1550 1550 1550 1550 1550 1550 1549 1549 1549 1549 1548 1548 1547
1529 1529 1530 1531 1531 1531 1532 1533 1534 1534 1535 1536 1537 1538 1538 1539 1540 1541 1542 1543 1544 1545 1546 1547 1548 1549 1549 1550 1550 1551 1551 1552 1552 1552 1552 1552 1551 1551 1551 1551 1550 1550 1549
1529 1529 1529 1530 1530 1531 1532 1533 1533 1534 1535 1536 1537 1538 1539 1539 1540 1541 1542 1544 1545 1546 1547 1548 1549 1550 1551 1551 1552 1552 1553 1553 1554 1554 1554 1554 1553 1553 1553 1552 1552 1552 1551
1528 1528 1529 1529 1530 1531 1531 1532 1533 1534 1535 1536 1537 1538 1539 1540 1541 1541 1543 1544 1545 1546 1548 1549 1550 1551 1552 1552 1553 1554 1555 1555 1555 1555 1556 1556 1556 1555 1555 1554 1554 1553 1553
1528 1528 1528 1529 1529 1530 1531 1531 1532 1534 1535 1536 1537 1538 1539 1540 1541 1542 1543 1544 1545 1546 1548 1549 1550 1552 1553 1554 1554 1555 1556 1557 1557 1557 1558 1557 1557 1557 1556 1556 1556 1555 1555
1527 1528 1528 1528 1529 1529 1530 1531 1532 1533 1534 1536 1537 1537 1539 1540 1541 1542 1543 1544 1545 1547 1548 1549 1551 1552 1553 1555 1555 1556 1557 1559 1559 1559 1559 1559 1559 1559 1559 1558 1557 1557 1556
1526 1527 1528 1528 1528 1529 1530 1531 1532 1533 1534 1535 1536 1537 1538 1540 1541 1542 1543 1544 1545 1547 1548 1549 1551 1552 1553 1555 1556 1557 1557 1558 1560 1561 1561 1561 1560 1560 1560 1560 1559 1558 1558
1526 1527 1527 1528 1528 1528 1529 1530 1531 1532 1533 1534 1536 1537 1538 1539 1540 1542 1543 1544 1545 1546 1548 1549 1551 1552 1553 1554 1555 1556 1557 1557 1558 1561 1562 1562 1562 1561 1561 1561 1560 1560 1559
1525 1526 1527 1527 1528 1528 1529 1530 1531 1532 1532 1534 1535 1536 1537 1538 1540 1541 1542 1544 1545 1546 1547 1549 1550 1551 1553 1554 1555 1555 1556 1557 1558 1559 1561 1562 1562 1562 1562 1562 1561 1561 1560
1524 1525 1526 1526 1527 1528 1528 1529 1530 1531 1532 1533 1534 1535 1536 1537 1539 1540 1542 1543 1544 1545 1546 1548 1549 1550 1552 1553 1554 1555 1556 1556 1557 1558 1559 1561 1561 1562 1563 1563 1562 1562 1561